CTB704 KMIA-EBBR

Flight info

Callsign CTB704
Flight time N/A
Altitude 35000
Route FOLZZ3 SUMRS/M084F350 M204 SOORY NATZ 43N050W/M084F370 NATZ ATSUR/M085F390 DCT LULOX/N0488F390 DCT SIDDI DCT DAWLY DCT GIBSO L620 SAM M140 DVR/N0445F230 L18 VABIK Q70 KOK
Aircraft MD11/H-SDE1E2E3FGHIJ2J3J4J5M1RWXY/LB1D1

Departure

Time 2026-05-06 23:40
Airport Miami International Airport (KMIA)

Arrival

Time N/A
Airport Brussels Airport (EBBR)
Time Latitude Longitude Altitude Speed Heading
2026-05-06 23:00 25.79774 -80.28052 22 ft 0 kts 214°
2026-05-06 23:28 25.79788 -80.28042 26 ft 4 kts 214°
2026-05-06 23:28 25.79810 -80.28025 24 ft 4 kts 214°
2026-05-06 23:28 25.79833 -80.28009 27 ft 4 kts 214°
2026-05-06 23:28 25.79855 -80.27992 27 ft 4 kts 214°
2026-05-06 23:29 25.79871 -80.27981 24 ft 4 kts 233°
2026-05-06 23:29 25.79879 -80.27959 22 ft 4 kts 267°
2026-05-06 23:29 25.79880 -80.27933 22 ft 4 kts 268°
2026-05-06 23:29 25.79880 -80.27919 22 ft 1 kts 268°
2026-05-06 23:33 25.79880 -80.27930 22 ft 7 kts 268°
2026-05-06 23:34 25.79887 -80.27998 25 ft 9 kts 286°
2026-05-06 23:34 25.79897 -80.28056 22 ft 5 kts 269°
2026-05-06 23:34 25.79896 -80.28093 22 ft 5 kts 269°
2026-05-06 23:34 25.79904 -80.28124 23 ft 4 kts 302°
2026-05-06 23:35 25.79943 -80.28144 26 ft 9 kts 349°
2026-05-06 23:35 25.80014 -80.28165 25 ft 10 kts 329°
2026-05-06 23:35 25.80038 -80.28229 26 ft 9 kts 270°
2026-05-06 23:35 25.80036 -80.28294 26 ft 9 kts 268°
2026-05-06 23:36 25.80033 -80.28381 22 ft 13 kts 268°
2026-05-06 23:36 25.80029 -80.28485 22 ft 14 kts 267°
2026-05-06 23:36 25.80024 -80.28604 24 ft 17 kts 267°
2026-05-06 23:36 25.80018 -80.28751 24 ft 21 kts 267°
2026-05-06 23:37 25.80011 -80.28929 27 ft 25 kts 267°
2026-05-06 23:37 25.80002 -80.29139 24 ft 29 kts 267°
2026-05-06 23:37 25.79993 -80.29361 23 ft 28 kts 267°
2026-05-06 23:37 25.79984 -80.29573 22 ft 27 kts 267°
2026-05-06 23:38 25.79976 -80.29770 22 ft 25 kts 267°
2026-05-06 23:38 25.79973 -80.29950 21 ft 18 kts 278°
2026-05-06 23:38 25.79994 -80.30041 21 ft 10 kts 286°
2026-05-06 23:38 25.80015 -80.30109 22 ft 8 kts 297°
2026-05-06 23:39 25.80039 -80.30124 22 ft 2 kts 347°
2026-05-06 23:39 25.80058 -80.30116 21 ft 6 kts 36°
2026-05-06 23:39 25.80074 -80.30054 21 ft 0 kts 86°
2026-05-06 23:39 25.80074 -80.30053 21 ft 1 kts 86°
2026-05-06 23:40 25.80084 -80.29829 21 ft 71 kts 87°
2026-05-06 23:40 25.80120 -80.28966 29 ft 149 kts 87°
2026-05-06 23:40 25.80190 -80.27675 411 ft 174 kts 84°
2026-05-06 23:40 25.80284 -80.26349 1398 ft 173 kts 89°
2026-05-06 23:41 25.80385 -80.24967 2130 ft 185 kts 86°
2026-05-06 23:41 25.80519 -80.23467 2762 ft 199 kts 85°
2026-05-06 23:41 25.80652 -80.21921 3488 ft 215 kts 85°
2026-05-06 23:41 25.80625 -80.20164 3748 ft 242 kts 104°
2026-05-06 23:42 25.79849 -80.18452 4094 ft 258 kts 128°
2026-05-06 23:42 25.78589 -80.16923 4439 ft 278 kts 135°
2026-05-06 23:42 25.77219 -80.15397 5334 ft 276 kts 133°
2026-05-06 23:42 25.75966 -80.13848 6322 ft 277 kts 124°
2026-05-06 23:43 25.75314 -80.11780 6794 ft 289 kts 89°
2026-05-06 23:43 25.75784 -80.09685 7654 ft 281 kts 60°
2026-05-06 23:43 25.76840 -80.07905 8703 ft 270 kts 53°
2026-05-06 23:43 25.77957 -80.06179 9154 ft 284 kts 52°
2026-05-06 23:44 25.79157 -80.04427 9928 ft 287 kts 51°
2026-05-06 23:44 25.80449 -80.02620 10241 ft 308 kts 50°
2026-05-06 23:44 25.81841 -80.00734 10377 ft 332 kts 49°
2026-05-06 23:44 25.83374 -79.98700 10606 ft 352 kts 49°
2026-05-06 23:45 25.84964 -79.96619 11345 ft 354 kts 49°
2026-05-06 23:45 25.86571 -79.94531 12106 ft 357 kts 48°
2026-05-06 23:45 25.88194 -79.92433 12871 ft 360 kts 48°
2026-05-06 23:45 25.89833 -79.90319 13617 ft 363 kts 48°
2026-05-06 23:46 25.91489 -79.88187 14273 ft 367 kts 47°
2026-05-06 23:46 25.93171 -79.86023 14817 ft 373 kts 47°
2026-05-06 23:46 25.94878 -79.83826 15378 ft 378 kts 47°
2026-05-06 23:46 25.96610 -79.81597 15926 ft 384 kts 47°
2026-05-06 23:47 25.98369 -79.79331 16474 ft 390 kts 47°
2026-05-06 23:47 26.00145 -79.77042 17037 ft 394 kts 47°
2026-05-06 23:47 26.01954 -79.74711 17570 ft 400 kts 47°
2026-05-06 23:47 26.03779 -79.72355 18108 ft 405 kts 46°
2026-05-06 23:48 26.05630 -79.69966 18597 ft 410 kts 46°
2026-05-06 23:48 26.07504 -79.67546 19107 ft 414 kts 46°
2026-05-06 23:48 26.09385 -79.65113 19617 ft 417 kts 46°
2026-05-06 23:48 26.11275 -79.62652 20114 ft 421 kts 47°
2026-05-06 23:49 26.13036 -79.60126 20619 ft 425 kts 50°
2026-05-06 23:49 26.14767 -79.57440 21113 ft 429 kts 51°
2026-05-06 23:49 26.16475 -79.54703 21601 ft 432 kts 51°
2026-05-06 23:49 26.18166 -79.51970 22107 ft 436 kts 51°
2026-05-06 23:50 26.19900 -79.49174 22391 ft 444 kts 51°
2026-05-06 23:50 26.23435 -79.43503 23171 ft 445 kts 50°
2026-05-06 23:50 26.25208 -79.40666 23704 ft 446 kts 50°
2026-05-06 23:51 26.26997 -79.37829 24090 ft 448 kts 49°
2026-05-06 23:51 26.29043 -79.35237 24460 ft 444 kts 37°
2026-05-06 23:51 26.31455 -79.33113 24829 ft 442 kts 30°
2026-05-06 23:51 26.34035 -79.31237 25206 ft 444 kts 27°
2026-05-06 23:52 26.36680 -79.29438 25587 ft 446 kts 26°
2026-05-06 23:52 26.39340 -79.27636 25957 ft 450 kts 27°
2026-05-06 23:52 26.42002 -79.25801 26139 ft 451 kts 27°
2026-05-06 23:52 26.44670 -79.23926 26475 ft 455 kts 28°
2026-05-06 23:53 26.47342 -79.22022 26830 ft 459 kts 28°
2026-05-06 23:53 26.50040 -79.20084 27170 ft 462 kts 28°
2026-05-06 23:53 26.52749 -79.18129 27522 ft 465 kts 28°
2026-05-06 23:53 26.55475 -79.16159 27872 ft 468 kts 28°
2026-05-06 23:54 26.58216 -79.14177 28213 ft 471 kts 28°
2026-05-06 23:54 26.60976 -79.12181 28556 ft 474 kts 28°
2026-05-06 23:54 26.63750 -79.10173 28879 ft 477 kts 28°
2026-05-06 23:54 26.65597 -79.08836 29100 ft 479 kts 28°
2026-05-06 23:55 26.68398 -79.06808 29429 ft 482 kts 28°
2026-05-06 23:55 26.71219 -79.04765 29814 ft 483 kts 28°
2026-05-06 23:55 26.74048 -79.02714 30166 ft 486 kts 28°
2026-05-06 23:55 26.76894 -79.00651 30482 ft 488 kts 28°
2026-05-06 23:56 26.79744 -78.98582 30805 ft 490 kts 28°
2026-05-06 23:56 26.82614 -78.96498 31107 ft 491 kts 28°
2026-05-06 23:56 26.85478 -78.94416 31461 ft 491 kts 27°
2026-05-06 23:56 26.88338 -78.92335 31824 ft 490 kts 27°
2026-05-06 23:57 26.91190 -78.90259 32185 ft 489 kts 27°
2026-05-06 23:57 26.94026 -78.88194 32520 ft 488 kts 27°
2026-05-06 23:57 26.96868 -78.86124 32875 ft 487 kts 27°
2026-05-06 23:57 26.99708 -78.84052 33208 ft 486 kts 27°
2026-05-06 23:58 27.02533 -78.81985 33537 ft 485 kts 27°
2026-05-06 23:58 27.05356 -78.79917 33841 ft 485 kts 27°
2026-05-06 23:58 27.08182 -78.77850 34128 ft 484 kts 27°
2026-05-06 23:58 27.11001 -78.75788 34384 ft 483 kts 27°
2026-05-06 23:59 27.13817 -78.73728 34633 ft 483 kts 27°
2026-05-06 23:59 27.16627 -78.71673 34878 ft 482 kts 27°
2026-05-06 23:59 27.19441 -78.69614 35042 ft 483 kts 27°
2026-05-06 23:59 27.22232 -78.67573 35073 ft 486 kts 27°
2026-05-07 00:00 27.27889 -78.63425 35086 ft 483 kts 27°
2026-05-07 00:00 27.33049 -78.58503 35088 ft 495 kts 43°
2026-05-07 00:01 27.37323 -78.52353 35090 ft 501 kts 48°
2026-05-07 00:01 27.41467 -78.46041 35090 ft 501 kts 47°
2026-05-07 00:02 27.45699 -78.39833 35091 ft 500 kts 46°
2026-05-07 00:02 27.49936 -78.33745 35091 ft 499 kts 46°
2026-05-07 00:03 27.54183 -78.27656 35088 ft 499 kts 46°
2026-05-07 00:03 27.58473 -78.21487 35094 ft 500 kts 46°
2026-05-07 00:04 27.62760 -78.15309 35092 ft 501 kts 46°
2026-05-07 00:04 27.67049 -78.09116 35087 ft 501 kts 46°
2026-05-07 00:05 27.71335 -78.02920 35090 ft 501 kts 46°
2026-05-07 00:05 27.75617 -77.96721 35088 ft 501 kts 46°
2026-05-07 00:06 27.79892 -77.90520 35087 ft 498 kts 46°
2026-05-07 00:06 27.84108 -77.84386 35102 ft 498 kts 46°
2026-05-07 00:07 27.88346 -77.78197 35093 ft 498 kts 46°
2026-05-07 00:07 27.92591 -77.72005 35089 ft 498 kts 46°
2026-05-07 00:08 27.96838 -77.65812 35087 ft 498 kts 46°
2026-05-07 00:08 28.01085 -77.59611 35093 ft 498 kts 46°
2026-05-07 00:09 28.05322 -77.53413 35093 ft 497 kts 46°
2026-05-07 00:09 28.09544 -77.47230 35102 ft 496 kts 45°
2026-05-07 00:10 28.13779 -77.41023 35089 ft 499 kts 45°
2026-05-07 00:10 28.18023 -77.34790 35088 ft 499 kts 45°
2026-05-07 00:11 28.22263 -77.28552 35093 ft 499 kts 45°
2026-05-07 00:11 28.26497 -77.22314 35097 ft 499 kts 45°
2026-05-07 00:12 28.30712 -77.16094 35099 ft 497 kts 45°
2026-05-07 00:12 28.34924 -77.09860 35107 ft 498 kts 45°
2026-05-07 00:13 28.39144 -77.03590 35098 ft 501 kts 45°
2026-05-07 00:13 28.43378 -76.97302 35097 ft 501 kts 45°
2026-05-07 00:14 28.47612 -76.91017 35094 ft 501 kts 45°
2026-05-07 00:14 28.51844 -76.84728 35096 ft 500 kts 45°
2026-05-07 00:15 28.56061 -76.78450 35099 ft 498 kts 45°
2026-05-07 00:15 28.60270 -76.72177 35106 ft 499 kts 45°
2026-05-07 00:16 28.64487 -76.65885 35101 ft 500 kts 45°
2026-05-07 00:16 28.68704 -76.59579 35097 ft 500 kts 45°
2026-05-07 00:17 28.72989 -76.53353 35100 ft 498 kts 43°
2026-05-07 00:17 28.77433 -76.47310 35100 ft 496 kts 42°
2026-05-07 00:18 28.81864 -76.41355 35104 ft 495 kts 42°
2026-05-07 00:18 28.86317 -76.35342 35111 ft 497 kts 42°
2026-05-07 00:19 28.90773 -76.29296 35103 ft 498 kts 43°
2026-05-07 00:19 28.95227 -76.23235 35102 ft 498 kts 43°
2026-05-07 00:20 28.99680 -76.17168 35105 ft 498 kts 43°
2026-05-07 00:20 29.04128 -76.11100 35105 ft 497 kts 43°
2026-05-07 00:21 29.08550 -76.05056 35108 ft 495 kts 43°
2026-05-07 00:21 29.12975 -75.99006 35109 ft 497 kts 43°
2026-05-07 00:22 29.17408 -75.92934 35103 ft 497 kts 43°
2026-05-07 00:22 29.21838 -75.86855 35111 ft 497 kts 43°
2026-05-07 00:23 29.26261 -75.80762 35109 ft 497 kts 43°
2026-05-07 00:23 29.30671 -75.74662 35111 ft 496 kts 43°
2026-05-07 00:24 29.35062 -75.68597 35119 ft 494 kts 42°
2026-05-07 00:24 29.39460 -75.62529 35115 ft 495 kts 42°
2026-05-07 00:25 29.43858 -75.56452 35113 ft 495 kts 42°
2026-05-07 00:25 29.48253 -75.50368 35113 ft 495 kts 42°
2026-05-07 00:26 29.52647 -75.44275 35119 ft 495 kts 43°
2026-05-07 00:26 29.57028 -75.38190 35120 ft 494 kts 42°
2026-05-07 00:27 29.61356 -75.32168 35122 ft 493 kts 42°
2026-05-07 00:27 29.65725 -75.26087 35119 ft 494 kts 42°
2026-05-07 00:28 29.70094 -75.19993 35124 ft 494 kts 42°
2026-05-07 00:28 29.74456 -75.13899 35124 ft 494 kts 42°
2026-05-07 00:29 29.78814 -75.07790 35124 ft 494 kts 43°
2026-05-07 00:30 29.87470 -74.95603 35127 ft 489 kts 42°
2026-05-07 00:30 29.91795 -74.89527 35127 ft 490 kts 42°
2026-05-07 00:31 29.96114 -74.83449 35127 ft 490 kts 42°
2026-05-07 00:31 30.00432 -74.77362 35130 ft 490 kts 42°
2026-05-07 00:32 30.04746 -74.71272 35128 ft 490 kts 42°
2026-05-07 00:32 30.09062 -74.65169 35127 ft 491 kts 42°
2026-05-07 00:33 30.13377 -74.59058 35131 ft 491 kts 42°
2026-05-07 00:33 30.17688 -74.52943 35131 ft 491 kts 42°
2026-05-07 00:34 30.21998 -74.46820 35131 ft 491 kts 43°
2026-05-07 00:34 30.26308 -74.40687 35134 ft 491 kts 43°
2026-05-07 00:35 30.30612 -74.34548 35153 ft 491 kts 43°